TimeEST,TemperatureF,Dew PointF,Humidity,Sea Level PressureIn,VisibilityMPH,Wind Direction,Wind SpeedMPH,Gust SpeedMPH,PrecipitationIn,Events,Conditions,WindDirDegrees,DateUTC
12:21 AM,39.2,30.2,70,29.87,10.0,SSE,16.1,23.0,0.00,Rain,Light Rain,150,2013-02-11 05:21:00
12:51 AM,39.0,30.9,73,29.87,10.0,SSE,15.0,20.7,0.00,,Overcast,150,2013-02-11 05:51:00
1:51 AM,39.0,33.1,79,29.85,10.0,SSE,10.4,-,N/A,,Overcast,150,2013-02-11 06:51:00
2:38 AM,39.2,35.6,87,29.81,10.0,SSE,9.2,18.4,N/A,,Overcast,160,2013-02-11 07:38:00
2:51 AM,39.9,37.0,89,29.83,7.0,South,10.4,-,0.00,Rain,Light Rain,170,2013-02-11 07:51:00
3:51 AM,39.9,37.9,93,29.81,3.0,SSE,9.2,-,0.01,Rain,Light Rain,160,2013-02-11 08:51:00
4:51 AM,42.1,39.0,89,29.78,10.0,South,12.7,20.7,0.00,,Overcast,180,2013-02-11 09:51:00
5:51 AM,42.1,39.9,92,29.77,9.0,South,10.4,-,N/A,,Overcast,190,2013-02-11 10:51:00
6:51 AM,43.0,41.0,93,29.75,8.0,South,10.4,-,N/A,,Overcast,180,2013-02-11 11:51:00
7:32 AM,44.6,41.0,87,29.74,10.0,South,8.1,-,N/A,,Mostly Cloudy,190,2013-02-11 12:32:00
7:41 AM,44.6,41.0,87,29.73,10.0,South,9.2,-,N/A,,Scattered Clouds,180,2013-02-11 12:41:00
7:51 AM,44.1,41.0,89,29.74,10.0,South,9.2,-,N/A,,Scattered Clouds,180,2013-02-11 12:51:00
8:05 AM,44.6,42.8,93,29.72,10.0,South,10.4,-,N/A,,Mostly Cloudy,190,2013-02-11 13:05:00
8:38 AM,46.4,42.8,87,29.71,10.0,South,9.2,-,N/A,,Mostly Cloudy,190,2013-02-11 13:38:00
8:51 AM,46.9,42.1,83,29.72,10.0,SSW,10.4,-,N/A,,Mostly Cloudy,200,2013-02-11 13:51:00
9:51 AM,48.9,42.1,77,29.70,10.0,SSW,11.5,20.7,N/A,,Overcast,200,2013-02-11 14:51:00
10:31 AM,51.8,41.0,67,29.67,10.0,SW,17.3,32.2,N/A,,Overcast,220,2013-02-11 15:31:00
10:51 AM,51.1,41.0,68,29.67,10.0,SW,19.6,36.8,N/A,,Mostly Cloudy,220,2013-02-11 15:51:00
11:38 AM,51.8,39.2,62,29.65,7.0,SW,19.6,38.0,0.00,Rain,Light Rain,230,2013-02-11 16:38:00
11:51 AM,48.0,41.0,77,29.68,9.0,West,17.3,26.5,0.00,Rain,Light Rain,260,2013-02-11 16:51:00
12:51 PM,50.0,36.0,59,29.67,10.0,WSW,19.6,40.3,0.00,,Overcast,240,2013-02-11 17:51:00
1:51 PM,48.0,34.0,58,29.68,10.0,West,25.3,34.5,N/A,,Overcast,270,2013-02-11 18:51:00
2:51 PM,43.0,30.0,60,29.72,10.0,West,21.9,33.4,N/A,,Mostly Cloudy,260,2013-02-11 19:51:00
3:51 PM,42.1,28.0,58,29.75,10.0,West,20.7,28.8,N/A,,Overcast,260,2013-02-11 20:51:00
4:51 PM,37.9,26.1,62,29.81,10.0,West,28.8,43.7,N/A,,Overcast,260,2013-02-11 21:51:00
5:51 PM,36.0,23.0,59,29.82,10.0,West,25.3,35.7,N/A,,Overcast,260,2013-02-11 22:51:00
6:51 PM,36.0,24.1,62,29.84,10.0,WSW,20.7,33.4,N/A,,Overcast,250,2013-02-11 23:51:00
7:51 PM,35.1,23.0,61,29.85,10.0,WSW,32.2,39.1,N/A,,Overcast,250,2013-02-12 00:51:00
8:51 PM,34.0,21.9,61,29.87,10.0,West,17.3,27.6,N/A,,Overcast,270,2013-02-12 01:51:00
9:51 PM,34.0,23.0,64,29.88,10.0,West,15.0,27.6,N/A,,Overcast,260,2013-02-12 02:51:00
10:32 PM,33.8,23.0,65,29.86,10.0,West,18.4,29.9,N/A,,Overcast,260,2013-02-12 03:32:00
10:51 PM,34.0,23.0,64,29.88,10.0,West,15.0,24.2,N/A,,Overcast,260,2013-02-12 03:51:00
11:21 PM,33.8,21.2,60,29.86,10.0,West,18.4,24.2,N/A,,Overcast,260,2013-02-12 04:21:00
11:41 PM,33.8,23.0,65,29.86,10.0,West,12.7,24.2,N/A,,Overcast,260,2013-02-12 04:41:00
11:51 PM,34.0,21.9,61,29.89,10.0,West,17.3,32.2,0.00,Snow,Light Snow,260,2013-02-12 04:51:00